Weather in Ube

Japan     34°01′17″N   131°14′47″E
temp.,
°C
wind,
m/s
gust,
m/s
humid.,
%
clouds,
%
prec.,
mm/h
press.,
hPa
HPBL,
m
28 november, sun
sun2800:00+6ne33670 0.0 1034253
03:00+5nne33700 0.0 103496
06:00+5ne33710 0.0 1034102
09:00+9ene22580 0.0 1035244
12:00+12ese33463 0.0 10341164
15:00+12ese234664 0.0 1032888
18:00+9se115998 0.0 1032211
21:00+8ene126653 0.0 1032253
29 november, mon
mon2900:00+7ene227218 0.0 1031250
03:00+7e2275100 0.0 1030248
06:00+7e227680 0.0 1030219
09:00+11se236696 0.0 1030351
12:00+14se335233 0.0 1029803
15:00+14ese22460 0.0 1026581
18:00+10ene22655 0.0 1027182
21:00+9ene227864 0.0 1027225
30 november, tue
tue3000:00+9e22830 0.0 1025122
03:00+9ese23845 0.0 1023120
06:00+11se4782100 0.0 1021215
09:00+14se61072100 0.0 1018568
12:00+18se101371100 0.0 1012969
15:00+16s5986100 2.8 1008511
18:00+12sw3893100 13.3 1010504
21:00+13w9147845 14.4 10111123
1 december, wed
wed100:00+10wnw9146098 0.1 10131641
03:00+8wnw11165711 0.1 10141803
06:00+8wnw11175696 0.0 10151999
09:00+7wnw1016555 0.0 10171753
12:00+9wnw1015514 0.0 10181731
15:00+8wnw8145438 0.0 10181942
18:00+7nw7125617 0.0 10191172
21:00+6nw611595 0.0 1021865
2 december, thu
thu200:00+5nw49665 0.0 1021562
03:00+4nw33725 0.0 1020387
06:00+5wnw46735 0.0 1020463
09:00+9wnw466129 0.0 10211193
12:00+11w565187 0.0 10201784
15:00+10w4760100 0.0 10191295
18:00+10w4862100 0.0 1019701
21:00+10wsw4872100 0.2 1020508